星链-37400(STARLINK-37400)

导读

STARLINK-37400(NORAD编号68777)是美国SpaceX公司星链(Starlink)星座中的一颗近地轨道通信卫星。星链项目旨在通过大规模低轨卫星群为全球提供高速宽带互联网接入服务,覆盖偏远地区、海洋等地面网络难以到达区域。该卫星属于星链组网卫星的一部分,运行在近地轨道,依托星链星座的激光星间链路和相控阵技术,可提供低时延(25-35ms)、高带宽的互联网服务,单星下行容量可达17-23Gbps,支撑星座实现全球覆盖,服务个人、商业和政府等多类用户。

基本信息
目录编号:
68777
目录名称:
STARLINK-37400
国际标识:
2026-086M
轨道中心:
EARTH
卫星名称:
星链-37400
卫星全名:
星链-37400(STARLINK-37400)
卫星状态:
在轨 (已飞行147 天)
发射日期:
2026-04-19 UTC
国别 :
美国 (US)
星等 :
--
该卫星已列入 空间交会检测服务 Space Conjunction Data Service (SCDS) ,当前飞行风险评估等级: 高风险
轨道信息
数据来源 国际轨道数据
星历时间: 2026-09-13T10:41:30+0800
9小时前
查看轨道信息
半长轴: 6843.677km
偏心率: 0.0001103
轨道倾角: 97.284°
近地点辐角 106.784°
升交点赤经 291.659°
平近点角 253.353°
近地点: 464.785km
远地点: 466.295km
周期: 93.906分钟
每日圈数: 15.334462
详细信息
固有亮度:
5
最大亮度:
2.5
卫星平台:
Starlink V1.0
覆盖范围:
全球
运营商:
太空探索技术公司
运营商所在国:
美国
制造商(研发单位):
太空探索技术公司
制造商所在国:
美国
使用方式:
暂无
卫星简介
Starlink 计划是 SpaceX 推出的全球卫星互联网项目,通过发射低轨道卫星,为全球尤其是偏远地区提供高速、低延迟的互联网服务。自 2019 年起,Starlink 已部署数千颗卫星,旨在缩小全球数字鸿沟,推动互联网普及。该项目还为军事、航空等行业提供通信支持,带来广泛经济效益。
2D轨道图
3D轨道图
轨道高度分析图
轨道倾角分析图
轨道综合分析图
查看轨道综合分析图
交会数据列表
事件ID 空间交会对象 最接近时刻(TCA) 交会距离 交会风险概率(CRP) 交会风险指数(CRI) 操作
CDM_260915-175404-780406-877721
2026-09-15T
17:54:19+0000
0.183 km
中距离
8.371336E-4 高风险 0.93
CDM_260915-201504-780406-877721
2026-09-15T
20:15:15+0000
2.067 km
极远距离
2.499623E-6 低风险 0.43
CDM_260915-080505-146706-877721
2026-09-15T
08:05:26+0000
2.732 km
极远距离
1.496515E-6 低风险 0.39
CDM_260915-080304-841106-877721
2026-09-15T
08:03:01+0000
2.751 km
极远距离
1.491729E-6 低风险 0.38
CDM_260915-154806-092106-877721
2026-09-15T
15:48:37+0000
2.825 km
极远距离
1.443337E-6 低风险 0.38
CDM_260915-210004-773406-877721
2026-09-15T
21:00:57+0000
2.863 km
极远距离
1.270259E-6 低风险 0.37
CDM_260915-104005-503406-877721
2026-09-15T
10:40:18+0000
1.964 km
极远距离
1.132721E-6 低风险 0.36
与全量物体交会距离演化趋势
与全量物体交会风险概率演化趋势